GSAT-15 (GAGAN/PRN 139)

Last updated on Sun Jul 06 2025 00:03:22 GMT+0000 (Coordinated Universal Time)

1 41028U 15065A 25186.63749510 -.00000242 00000+0 00000+0 0 9996 2 41028 0.0412 243.7173 0003736 201.3667 161.7833 1.00273440 35328
UTC large
Height (km)
Speed (km/s)
/
Latitude / Longitude
Inclination (degrees)
Orbital Period (minutes)
Azimuth
Elevation
Range (km)
Doppler Factor

Next 0 passes for location: London (51.5072 / 0.1276)

Sorry there are no passes over London.